[[{"header":{"parameterUnit":"m.s-1","parameterCategory":1,"la1":30.2991,"la2":30.254,"lo1":-89.0895,"lo2":-89.0444,"dy":0.0017,"dx":0.0017,"nx":28,"ny":28,"refTime":"2024-03-22T09:00:00:Z","depth":0,"parameterNumber":2,"parameterNumberName":"U-component_of_WINDS"},"data":[0,0,0,0,0,0,0,0,0,0,0,0,0,0,0,0,0,0,0,0,0,0,0,0,0,0,0,0,0,0,0,0,0,0,0,0,0,0,0,0,0,0,0,0,0,0,0,0,0,0,0,0,0,0,0,0,0,0,0.3301,0.3302,0,0.3325,0.3325,0.3325,0.3325,0.3325,0.3324,0.3324,0.3348,0.3349,0.335,0,0,0,0,0,0,0,0,0,0,0,0,0,0.3256,0.3257,0.3301,0.3302,0.3302,0.3325,0.3325,0.3325,0.3325,0.3325,0.3324,0.3324,0.3348,0.3349,0.335,0,0,0,0,0,0,0,0,0,0,0,0,0,0.3277,0.3257,0.3301,0.3305,0.3305,0.3325,0.3325,0.3325,0.3325,0.3325,0.3324,0.3324,0.3347,0.3349,0.335,0.3368,0,0,0.3354,0.3355,0,0,0,0,0,0,0,0,0.3276,0.3279,0.3304,0.3304,0.3305,0.3322,0.3318,0.334,0.3325,0.3318,0.3324,0.3324,0.334,0.3342,0.3347,0.3369,0.337,0.3355,0.3355,0.3356,0.3356,0,0,0,0,0,0,0,0.3275,0.3278,0.3311,0.3304,0.3305,0.3305,0.3307,0.3322,0.3331,0.3318,0.3318,0.3321,0.334,0.3346,0.3348,0.3371,0.3354,0.3356,0.3357,0.3357,0.3409,0.3409,0,0,0,0,0,0,0.3273,0.3277,0.331,0.3311,0.3289,0.3306,0.3309,0.3317,0.3331,0.3332,0.3321,0.3321,0.3344,0.3346,0.3348,0.3371,0.3356,0.3357,0.3358,0.3408,0.3409,0.3409,0,0,0,0,0,0,0.3272,0.3276,0.3309,0.3294,0.3298,0.3307,0.3316,0.3317,0.3323,0.3333,0.3335,0.3326,0.3343,0.3346,0.3363,0.3372,0.3358,0.3359,0.3407,0.3408,0.3409,0.3416,0,0,0,0,0,0,0.327,0.3275,0.3282,0.3294,0.3299,0.3324,0.3317,0.3318,0.3326,0.3325,0.3338,0.3339,0.3343,0.3361,0.3365,0.3373,0.336,0.3407,0.3408,0.3409,0.3415,0.3417,0.3418,0,0,0,0,0,0.3269,0.3283,0.3283,0.3287,0.3308,0.3324,0.3327,0.3331,0.3326,0.3334,0.334,0.3339,0.337,0.3363,0.3367,0.3376,0.3406,0.3408,0.3409,0.3414,0.3416,0.3418,0,0,0,0,0,0,0.3273,0.3285,0.3284,0.3303,0.3313,0.3324,0.3334,0.3333,0.3344,0.3343,0.3348,0.3351,0.3368,0.3373,0.3365,0.3394,0.3387,0.339,0.339,0.3393,0.3394,0.3393,0.3361,0,0,0,0,0,0.3275,0.3287,0.3297,0.3313,0.3318,0.3325,0.3332,0.3334,0.3344,0.3348,0.3355,0.3365,0.3377,0.3385,0.3396,0.3415,0.3418,0.3423,0.3425,0.3426,0.3429,0.344,0.3442,0.3413,0.3413,0.3413,0,0,0.3282,0.329,0.3298,0.3314,0.3322,0.3334,0.3328,0.3341,0.3351,0.335,0.3367,0.3372,0.3383,0.3401,0.3409,0.3406,0.3437,0.3428,0.3429,0.3431,0.3441,0.3444,0.3446,0.3414,0.3414,0.3414,0,0,0.3301,0.3307,0.3322,0.3329,0.334,0.3345,0.3348,0.3359,0.3363,0.3379,0.3379,0.339,0.341,0.3418,0.3425,0.3445,0.3445,0.3448,0.3458,0.3469,0.3471,0.3473,0.3481,0.3484,0.345,0.345,0.345,0,0.3307,0.3326,0.3329,0.3342,0.335,0.3349,0.3363,0.337,0.3385,0.339,0.3386,0.3411,0.3418,0.3439,0.3444,0.3448,0.3453,0.3448,0.347,0.3472,0.3474,0.3482,0.3485,0.345,0.345,0.345,0.345,0,0.3334,0.3347,0.3357,0.3371,0.3379,0.3393,0.3398,0.3406,0.3407,0.3412,0.3428,0.3437,0.345,0.3454,0.3455,0.3475,0.3473,0.3469,0.3463,0.3478,0.3485,0.3488,0.3451,0.3451,0.3451,0.3451,0,0,0.3358,0.3373,0.3376,0.3383,0.3394,0.3404,0.3418,0.343,0.3438,0.3447,0.3459,0.3475,0.3472,0.348,0.3481,0.349,0.3507,0.3486,0.3486,0.3491,0.353,0.3534,0.3537,0.3506,0.3507,0.3507,0.3529,0,0.3379,0.3404,0.3406,0.3428,0.344,0.3438,0.345,0.3458,0.3463,0.3473,0.3478,0.349,0.3484,0.3489,0.3498,0.3503,0.3515,0.3501,0.3518,0.3519,0.3517,0.3541,0.3545,0.3566,0.3532,0.3533,0.3533,0,0.3408,0.3418,0.3441,0.3451,0.3456,0.3466,0.3478,0.3488,0.3497,0.35,0.3508,0.3508,0.3522,0.3513,0.3532,0.3523,0.3529,0.3533,0.3534,0.3537,0.3528,0.3547,0.3573,0.3577,0.3538,0.3537,0.3537,0,0.3425,0.3444,0.346,0.3465,0.3477,0.3484,0.3489,0.3498,0.3505,0.3515,0.352,0.3531,0.3538,0.3547,0.355,0.3543,0.357,0.3561,0.3573,0.3573,0.358,0.358,0.361,0.3581,0.3581,0.3581,0.3581,0,0.3449,0.3464,0.3468,0.3478,0.3494,0.3496,0.3512,0.3517,0.3524,0.3535,0.3534,0.3544,0.3547,0.3558,0.356,0.3576,0.3579,0.3582,0.3583,0.3583,0.3583,0.3589,0.3588,0.3582,0.3582,0.3582,0.3581,0,0.3472,0.3475,0.3493,0.3502,0.3504,0.3516,0.3524,0.3534,0.3537,0.3551,0.3554,0.3559,0.3572,0.3576,0.3591,0.3592,0.3612,0.361,0.3609,0.361,0.3622,0.3621,0.3658,0.3663,0.3629,0.363,0.363,0,0.3489,0.35,0.3509,0.3517,0.3522,0.3534,0.3541,0.3543,0.3551,0.3561,0.357,0.3582,0.3593,0.3613,0.3618,0.363,0.363,0.3641,0.3631,0.3632,0.3632,0.3632,0.3634,0.3644,0.3644,0.3645,0.3645,0,0.3518,0.3519,0.353,0.3541,0.355,0.3559,0.3567,0.3573,0.3576,0.3584,0.3597,0.3605,0.362,0.3633,0.3644,0.3649,0.3648,0.3648,0.3651,0.3653,0.3653,0.3655,0.3616,0.3647,0.3647,0.3647,0.3647,0.3647,0.354,0.355,0.3558,0.357,0.3576,0.3584,0.3594,0.3598,0.3609,0.3621,0.3621,0.3635,0.3643,0.3658,0.3664,0.3675,0.3672,0.3677,0.3678,0.368,0.3682,0.3649,0.3677,0.3677,0.3677,0.3677,0.3677,0,0.3571,0.3576,0.3586,0.3598,0.3608,0.3604,0.3613,0.3621,0.3634,0.3641,0.3651,0.3666,0.3677,0.3683,0.3695,0.3703,0.3702,0.3706,0.3707,0.3708,0.3683,0.368,0.3706,0.3706,0.3706,0.3706,0.3706,0.3706,0.3588,0.3605,0.3607,0.3626,0.3631,0.3645,0.3651,0.3658,0.3664,0.368,0.369,0.3693,0.37,0.3712,0.3723,0.3724,0.3729,0.3734,0.3735,0.3712,0.3709,0.3707,0.3704,0.3734,0.3734,0.3758,0.3759,0.3759]},{"header":{"parameterUnit":"m.s-1","parameterCategory":1,"la1":30.2991,"la2":30.254,"lo1":-89.0895,"lo2":-89.0444,"dy":0.0017,"dx":0.0017,"nx":28,"ny":28,"refTime":"2024-03-22T09:00:00:Z","depth":0,"parameterNumber":3,"parameterNumberName":"V-component_of_WINDS"},"data":[0,0,0,0,0,0,0,0,0,0,0,0,0,0,0,0,0,0,0,0,0,0,0,0,0,0,0,0,0,0,0,0,0,0,0,0,0,0,0,0,0,0,0,0,0,0,0,0,0,0,0,0,0,0,0,0,0,0,0.0746,0.0745,0,0.0713,0.0712,0.0712,0.0729,0.073,0.0731,0.0731,0.0695,0.0694,0.0692,0,0,0,0,0,0,0,0,0,0,0,0,0,0.0822,0.0821,0.0746,0.0745,0.0745,0.0713,0.0712,0.0712,0.0729,0.073,0.0731,0.0732,0.0696,0.0694,0.0692,0,0,0,0,0,0,0,0,0,0,0,0,0,0.0789,0.082,0.0746,0.0749,0.0749,0.0713,0.0712,0.0712,0.0728,0.073,0.0731,0.0732,0.0697,0.0694,0.0692,0.0649,0,0,0.0683,0.0682,0,0,0,0,0,0,0,0,0.0791,0.0786,0.0749,0.0749,0.0749,0.0726,0.0726,0.0691,0.0728,0.0736,0.0731,0.0733,0.0705,0.0701,0.0692,0.0647,0.0646,0.0683,0.0682,0.068,0.068,0,0,0,0,0,0,0,0.0793,0.0788,0.0733,0.0749,0.0749,0.0753,0.0749,0.072,0.0713,0.0736,0.0737,0.0733,0.0705,0.0695,0.0691,0.0645,0.0683,0.0681,0.0679,0.0678,0.0565,0.0564,0,0,0,0,0,0,0.0796,0.079,0.0734,0.0732,0.0774,0.075,0.0746,0.0732,0.0714,0.0712,0.0732,0.0734,0.0699,0.0695,0.069,0.064,0.068,0.0678,0.0676,0.0566,0.0565,0.0563,0,0,0,0,0,0,0.0797,0.079,0.0735,0.0761,0.0754,0.0747,0.0731,0.0731,0.0721,0.0711,0.071,0.0723,0.0699,0.0694,0.066,0.0639,0.0677,0.0674,0.0568,0.0566,0.0564,0.0538,0,0,0,0,0,0,0.0799,0.0791,0.0775,0.0761,0.0753,0.0705,0.073,0.0729,0.0717,0.0719,0.0702,0.07,0.07,0.0663,0.0657,0.0636,0.0672,0.057,0.0567,0.0565,0.054,0.0535,0.053,0,0,0,0,0,0.0802,0.0768,0.0774,0.0767,0.0732,0.0704,0.0699,0.07,0.0715,0.0698,0.0692,0.0701,0.0642,0.066,0.0652,0.063,0.0571,0.0568,0.0565,0.0543,0.0536,0.0531,0,0,0,0,0,0,0.0778,0.0766,0.0772,0.0732,0.0719,0.0706,0.0685,0.0693,0.0674,0.0677,0.0678,0.0674,0.0639,0.0631,0.0651,0.0589,0.0609,0.0604,0.0595,0.0588,0.0583,0.0586,0.067,0,0,0,0,0,0.0768,0.0747,0.0737,0.0703,0.0696,0.0692,0.0679,0.0682,0.0667,0.0661,0.0653,0.0638,0.0617,0.0602,0.0582,0.054,0.0537,0.0521,0.0516,0.0512,0.0508,0.0486,0.0479,0.0553,0.0553,0.0553,0,0,0.0747,0.0738,0.0724,0.0698,0.0688,0.0665,0.0687,0.0661,0.0645,0.0657,0.0625,0.0618,0.0602,0.0564,0.0547,0.0556,0.0487,0.0508,0.0505,0.0503,0.0482,0.0475,0.0469,0.0551,0.0551,0.0551,0,0,0.0698,0.0689,0.066,0.065,0.0635,0.0633,0.0626,0.0613,0.0609,0.0577,0.0586,0.0566,0.0529,0.0518,0.0507,0.0456,0.0463,0.0449,0.0422,0.0401,0.0396,0.039,0.0372,0.0366,0.0445,0.0445,0.0445,0,0.0674,0.064,0.0644,0.0618,0.0606,0.0619,0.059,0.058,0.0558,0.055,0.0562,0.0516,0.0506,0.0466,0.0454,0.0445,0.0438,0.045,0.0396,0.0391,0.0386,0.0369,0.0362,0.0443,0.0444,0.0444,0.0444,0,0.0611,0.0588,0.0566,0.0547,0.0533,0.0506,0.0505,0.0491,0.0495,0.0492,0.0459,0.0448,0.0426,0.0417,0.042,0.0378,0.0385,0.0396,0.0417,0.0378,0.0362,0.0355,0.0441,0.0442,0.0442,0.0443,0,0,0.0543,0.0528,0.052,0.0512,0.0498,0.048,0.0454,0.0433,0.0421,0.0407,0.0385,0.0354,0.0366,0.0353,0.0356,0.0337,0.0298,0.0351,0.0351,0.0342,0.0252,0.0243,0.0235,0.0304,0.0303,0.0302,0.0253,0,0.0492,0.0447,0.0451,0.0408,0.0387,0.04,0.0377,0.0366,0.0363,0.0345,0.0341,0.032,0.0336,0.0329,0.0312,0.0307,0.028,0.031,0.0283,0.0282,0.0286,0.0226,0.0216,0.0171,0.0247,0.0246,0.0245,0,0.0426,0.0411,0.0367,0.0357,0.0349,0.0328,0.0311,0.0293,0.0281,0.0281,0.0269,0.0275,0.0249,0.0271,0.0235,0.0255,0.0245,0.0241,0.0239,0.0236,0.026,0.0221,0.0156,0.0149,0.0235,0.0236,0.0236,0,0.0381,0.035,0.032,0.0312,0.03,0.0286,0.028,0.027,0.0258,0.0243,0.0235,0.0217,0.0207,0.0193,0.0194,0.021,0.0158,0.018,0.0156,0.0156,0.0143,0.0144,0.0075,0.0138,0.0138,0.0138,0.0138,0,0.0324,0.0296,0.0299,0.028,0.025,0.0255,0.0225,0.0221,0.0212,0.0192,0.0203,0.0184,0.0187,0.0169,0.017,0.014,0.0136,0.0134,0.0135,0.0133,0.0133,0.0125,0.0128,0.0136,0.0137,0.0137,0.0137,0,0.0267,0.0269,0.0236,0.0229,0.0226,0.0204,0.0197,0.018,0.0179,0.0154,0.0149,0.0147,0.0126,0.0127,0.0102,0.0103,0.0067,0.0071,0.0071,0.0072,0.0048,0.005,-0.0029,-0.0039,0.0031,0.003,0.003,0,0.023,0.0209,0.02,0.0188,0.0182,0.0163,0.0152,0.0156,0.0144,0.013,0.0114,0.0095,0.008,0.0046,0.0042,0.0024,0.0028,0.0002,0.0025,0.0024,0.0027,0.0028,0.0026,-0.0004,-0.0004,-0.0005,-0.0006,0,0.0164,0.0166,0.0149,0.0134,0.012,0.0108,0.0096,0.0086,0.009,0.0076,0.0055,0.0044,0.002,0.0001,-0.0016,-0.0022,-0.0013,-0.0012,-0.0019,-0.0022,-0.0021,-0.0022,0.0058,-0.0011,-0.0011,-0.001,-0.001,-0.001,0.0115,0.0098,0.0089,0.0071,0.0064,0.0053,0.0037,0.0035,0.0018,-0.0,0.0004,-0.0019,-0.0028,-0.005,-0.0057,-0.0075,-0.0066,-0.0075,-0.0077,-0.008,-0.0083,-0.0017,-0.0078,-0.0078,-0.0077,-0.0077,-0.0077,0,0.0049,0.0045,0.0028,0.0013,-0.0001,0.001,-0.0001,-0.0014,-0.0034,-0.0043,-0.0058,-0.008,-0.0098,-0.0103,-0.012,-0.0133,-0.013,-0.0138,-0.0138,-0.0139,-0.009,-0.0083,-0.0141,-0.0141,-0.014,-0.014,-0.014,-0.014,0.0013,-0.0015,-0.0014,-0.0046,-0.005,-0.0071,-0.0079,-0.0088,-0.0095,-0.012,-0.0135,-0.0137,-0.0144,-0.0161,-0.0177,-0.0178,-0.0185,-0.0195,-0.0194,-0.0149,-0.0142,-0.0136,-0.013,-0.0196,-0.0196,-0.0242,-0.0242,-0.0242]}]]